User: anonymous   Login
Location: Unspecified
(0.0000°N, 0.0000°E)
Time: 01:02:33
(UTC+00:00)
Language:

STARLINK-30777 - Orbit

View from above orbital plane
View from above orbital plane
View from above satellite
View from above satellite

Ground track
Ground track

The orbit is defined by the following mean orbital elements,

1 58233U          26145.21212172 +.00000000 +00000-0 +95647-4 0 00005
2 58233  42.9979 213.4159 0001152 280.8886  79.1836 15.27580357    04
Epoch (UTC): 25 May 2026 05:05:27
Eccentricity: 0.0001152
inclination: 42.9979°
perigee height: 482 km
apogee height: 484 km
right ascension of ascending node: 213.4159°
argument of perigee: 280.8886°
revolutions per day: 15.27580357
mean anomaly at epoch: 79.1836°

The dashed part of the orbit path shows where the satellite is in the earth's shadow,  

DLR